Location: Norton
(51.3000°N, 0.8167°E)
Time: 14:02:44
(UTC+00:00)

Cosmos 44 Rocket - Pass Details

Date: 03 March 2021
Orbit: 636 x 754 km, 65.1° (Epoch: 10 April)

Event Time Altitude Azimuth Distance (km) Brightness Sun altitude
Rises 18:18:24 0° 318° (NW) 3,207 7.4 -6.6°
Reaches altitude 10° 18:20:47 10° 317° (NW) 2,285 6.6 -7.0°
Maximum altitude 18:26:02 76° 233° (SW) 781 3.7 -7.8°
Drops below altitude 10° 18:31:14 10° 148° (SSE) 2,262 5.6 -8.6°
Sets 18:33:36 0° 147° (SSE) 3,173 6.4 -9.0°
